Regional Weather Roundup
Issued by NWS Sterling, VA

Home | Current Version | Previous Version | Graphics & Text | Print | Product List | Glossary On
Versions: 1 2 3 4 5 6 7 8 9 10 11 12 13 14 15 16 17 18 19 20 21 22 23 24 25 26 27
000
ASUS41 KLWX 242310
RWRLWX

REGIONAL WEATHER ROUNDUP
NATIONAL WEATHER SERVICE BALTIMORE MD/WASHINGTON DC
700 PM EDT WED AUG 24 2016

Note: "FAIR" indicates few or no clouds below 12,000 feet
with no significant weather and/or obstructions to visibility.
 TC=TEMPERATURE CELSIUS

 * =Non NWS site. Station does not report precipitation (e.g. rain,
    snow, etc.), thunder, or fog.

DCZ001-MDZ009-015-VAZ040>042-051-053>054-250000-
WASHINGTON METRO

CITY           SKY/WX    TMP DP  RH WIND       PRES   REMARKS
WASHINGTON NAT MOCLDY    83  66  56 S12       30.17F
DULLES         PTCLDY    81  64  56 S10       30.16F
ANDREWS AFB    CLEAR     79  65  62 S10       30.17F
FT BELVOIR     CLEAR     80  66  62 SE7       30.17F
QUANTICO       CLEAR     83  67  58 SE9       30.17F
COLLEGE PARK*  CLEAR     81  63  54 S6        30.17S
LEESBURG*      PTCLDY    84  70  61 S15       30.17F
MANASSAS*      CLEAR     82  68  61 S7        30.17F
GAITHERSBURG*  PTCLDY    81  63  54 S6        30.21F

$$

MDZ006>007-011-014-250000-
BALTIMORE METRO

CITY           SKY/WX    TMP DP  RH WIND       PRES   REMARKS
BWI AIRPORT    CLOUDY    80  65  59 SE8       30.17F
MARTIN STATE   MOCLDY    81  68  65 SE10      30.18F
ANNAPOLIS      CLEAR     80  65  59 S10       30.18F
FORT MEADE*    CLOUDY    77  64  65 SE7       30.19F

$$

MDZ012-015-019>023-250000-
MARYLAND EASTERN SHORE

CITY           SKY/WX    TMP DP  RH WIND       PRES   REMARKS
OCEAN CITY     CLEAR     77  62  59 S5        30.22S
SALISBURY      CLEAR     77  63  61 S7        30.21S
BAY BRIDGE AP* CLEAR     81  63  54 S7        30.18F
CAMBRIDGE*     CLEAR     77  61  57 S3        30.19F
EASTON*        CLEAR     82  66  57 S7        30.23F

$$

MDZ017>025-250000-
SOUTHERN MARYLAND

CITY           SKY/WX    TMP DP  RH WIND       PRES   REMARKS
PATUXENT RIVER PTCLDY    78  58  49 S7        30.19F
ST INIGOES     CLEAR     79  60  52 SE7       30.19F
LEONARDTOWN*   CLEAR     77  57  50 SE3       30.21F

$$

MDZ003>005-250000-
NORTH CENTRAL MARYLAND

CITY           SKY/WX    TMP DP  RH WIND       PRES   REMARKS
FREDERICK*     NOT AVBL
HAGERSTOWN APT CLOUDY    83  63  50 S14       30.15F

$$

MDZ501>502-250000-
WESTERN MARYLAND

CITY           SKY/WX    TMP DP  RH WIND       PRES   REMARKS
OAKLAND*       SUNNY     73  59  60 SW3       30.26S
CUMBERLAND*    SUNNY     84  63  48 SE3       30.17S

$$

VAZ025>031-250000-
SHENANDOAH VALLEY

CITY           SKY/WX    TMP DP  RH WIND       PRES   REMARKS
WINCHESTER*    CLEAR     81  68  65 SE9       30.16S
FRONT ROYAL*   FAIR      81  68  65 S3        30.15S
LURAY*         FAIR      82  66  57 S5        30.17R
NEW MARKET*    FAIR     N/A N/A N/A S6        30.15R
STAUNTON*      SUNNY     78  67  68 S7        30.21R
WAYNESBORO*    MOCLDY    79  66  64 S9        30.21S

$$

WVZ021-048>050-054>055-250000-
EASTERN WEST VIRGINIA PANHANDLE

CITY           SKY/WX    TMP DP  RH WIND       PRES   REMARKS
MARTINSBURG    CLEAR     81  67  62 S8        30.14F
PETERSBURG*    MOSUNNY   86  64  47 S7        30.14R

$$

VAZ036>039-050-250000-
CENTRAL FOOTHILLS

CITY           SKY/WX    TMP DP  RH WIND       PRES   REMARKS
CHARLOTTESVILL MOCLDY    83  67  58 S9        30.17F
CULPEPER*      CLEAR     82  68  62 CALM      30.17S
ORANGE*          N/A     82  68  61 CALM      30.19F
GORDONSVILLE*  NOT AVBL
WARRENTON*     FAIR      82  62  50 S5        30.17S

$$

VAZ055>057-250000-
NORTH AND CENTRAL PIEDMONT

CITY           SKY/WX    TMP DP  RH WIND       PRES   REMARKS
FREDERICKSBRG*   N/A     83  68  59 SE6       30.16F
STAFFORD*      CLEAR     81  63  53 S6        30.21S

$$

NCZ024-NYZ072-PAZ021-071-VAZ022-071-250000-
OTHER REGIONAL OBSERVATIONS

CITY           SKY/WX    TMP DP  RH WIND       PRES   REMARKS
NEW YORK CITY    N/A     82  63  51 MISG        N/A
PHILADELPHIA   MOCLDY    82  62  50 SW12      30.18F
PITTSBURGH     PTSUNNY   83  61  47 SW9       30.13F
ROANOKE        PTSUNNY   80  69  69 S7        30.22S
RICHMOND       PTCLDY    81  60  48 S7        30.18F
RALEIGH        MOCLDY    83  63  50 E3        30.20F

$$

ANZ530>537-250000-
MARINE OBSERVATIONS

STATION/POSITION TIME  TEMP    WIND        PRES
                       AIR SEA DIR/SP/G
                 (UTC) (F)     (DEG/KT/KT) (MB)
THOMAS PT LIGHT  2300   80 82  170/ 15/ 16 1023.1F
BALT KEY BRIDGE  2230   80     150/ 16/ 18 1021.3F
COVE POINT       2230   79     180/ 12/ 13 1023.0F
LEWISETTA        2242      83                N/A
SOLOMONS ISLAND  2242      84                N/A
PINEY POINT      2230          170/ 10/ 12   N/A

$$





USA.gov is the U.S. government's official web portal to all federal, state and local government web resources and services.